| time (UTC) | temp F | wind direction | speed MPH | gust MPH | rain 1hr in | rain 24hr in | rain mn in | humidity % | barometer mb |
| 20260504130520 | 53 | 40 | 0.0 | 0.0 | 0.00 | 0.00 | 0.00 | 95 | 1015.8 |
| 20260504110508 | 42 | 273 | 0.0 | 0.0 | 0.00 | 0.00 | 0.00 | 94 | 1015.4 |
| 20260504100503 | 43 | 273 | 0.0 | 0.0 | 0.00 | 0.00 | 0.00 | 92 | 1015.1 |
| 20260504090117 | 44 | 273 | 0.0 | 0.0 | 0.00 | 0.00 | 0.00 | 91 | 1015.1 |
| 20260504081546 | 46 | 273 | 0.0 | 0.0 | 0.00 | 0.00 | 0.00 | 90 | 1015.0 |
| 20260504081046 | 46 | 273 | 0.0 | 0.0 | 0.00 | 0.00 | 0.00 | 90 | 1015.0 |
| 20260504080548 | 46 | 273 | 0.0 | 0.0 | 0.00 | 0.00 | 0.00 | 90 | 1015.0 |
| 20260504050515 | 49 | 273 | 0.0 | 0.0 | 0.00 | 0.00 | 0.00 | 85 | 1015.8 |
| 20260504050015 | 49 | 273 | 0.0 | 0.0 | 0.00 | 0.00 | 0.00 | 85 | 1015.8 |
| 20260504045512 | 49 | 273 | 0.0 | 0.0 | 0.00 | 0.00 | 0.00 | 85 | 1015.8 |
| 20260504045016 | 49 | 273 | 0.0 | 0.0 | 0.00 | 0.00 | 0.00 | 84 | 1015.8 |
| 20260504044527 | 50 | 273 | 0.0 | 0.0 | 0.00 | 0.00 | 0.00 | 83 | 1015.8 |
| 20260504044010 | 50 | 273 | 0.0 | 0.0 | 0.00 | 0.00 | 0.00 | 82 | 1015.7 |
| 20260504043508 | 50 | 273 | 0.0 | 0.0 | 0.00 | 0.00 | 0.00 | 82 | 1015.7 |
| 20260504043007 | 50 | 273 | 0.0 | 0.0 | 0.00 | 0.00 | 0.00 | 81 | 1015.7 |
| 20260504042505 | 50 | 273 | 0.0 | 0.0 | 0.00 | 0.00 | 0.00 | 80 | 1015.7 |
| 20260504042008 | 50 | 273 | 0.0 | 0.0 | 0.00 | 0.00 | 0.00 | 81 | 1015.8 |
| 20260504041504 | 50 | 273 | 0.0 | 0.0 | 0.00 | 0.00 | 0.00 | 81 | 1015.7 |
| 20260504041003 | 50 | 273 | 0.0 | 0.0 | 0.00 | 0.00 | 0.00 | 81 | 1015.7 |
| 20260504040502 | 50 | 273 | 0.0 | 0.0 | 0.00 | 0.00 | 0.00 | 80 | 1015.8 |
| 20260504040001 | 51 | 273 | 0.0 | 0.0 | 0.00 | 0.00 | 0.00 | 80 | 1015.8 |
| 20260504035600 | 51 | 273 | 0.0 | 0.0 | 0.00 | 0.00 | 0.00 | 80 | 1015.7 |
| 20260504035100 | 51 | 273 | 0.0 | 0.0 | 0.00 | 0.00 | 0.00 | 79 | 1015.7 |
| 20260504034605 | 51 | 273 | 0.0 | 0.0 | 0.00 | 0.00 | 0.00 | 79 | 1015.7 |
| 20260504034059 | 51 | 273 | 0.0 | 0.0 | 0.00 | 0.00 | 0.00 | 78 | 1015.7 |
| 20260504033559 | 51 | 273 | 0.0 | 0.0 | 0.00 | 0.00 | 0.00 | 77 | 1015.7 |
| 20260504033115 | 51 | 273 | 0.0 | 0.0 | 0.00 | 0.00 | 0.00 | 76 | 1015.8 |
| 20260504032600 | 52 | 273 | 0.0 | 0.0 | 0.00 | 0.00 | 0.00 | 76 | 1015.8 |
| 20260504032058 | 52 | 273 | 0.0 | 0.0 | 0.00 | 0.00 | 0.00 | 76 | 1015.8 |
| 20260504031559 | 52 | 273 | 0.0 | 0.0 | 0.00 | 0.00 | 0.00 | 76 | 1015.8 |
| 20260504031059 | 52 | 273 | 0.0 | 0.0 | 0.00 | 0.00 | 0.00 | 75 | 1015.9 |
| 20260504030558 | 52 | 273 | 0.0 | 0.0 | 0.00 | 0.00 | 0.00 | 75 | 1015.8 |
| 20260504030058 | 52 | 273 | 0.0 | 0.0 | 0.00 | 0.00 | 0.00 | 74 | 1015.8 |
| 20260504025558 | 52 | 273 | 0.0 | 0.0 | 0.00 | 0.00 | 0.00 | 74 | 1015.8 |
| 20260504025058 | 53 | 273 | 0.0 | 0.0 | 0.00 | 0.00 | 0.00 | 73 | 1015.8 |
| 20260504024606 | 53 | 273 | 0.0 | 0.0 | 0.00 | 0.00 | 0.00 | 72 | 1015.8 |
| 20260504024057 | 53 | 273 | 0.0 | 0.0 | 0.00 | 0.00 | 0.00 | 72 | 1015.7 |
| 20260504023557 | 53 | 273 | 0.0 | 0.0 | 0.00 | 0.00 | 0.00 | 72 | 1015.7 |
| 20260504023057 | 53 | 273 | 0.0 | 0.0 | 0.00 | 0.00 | 0.00 | 72 | 1015.7 |
| 20260504022558 | 54 | 273 | 0.0 | 0.0 | 0.00 | 0.00 | 0.00 | 71 | 1015.6 |
| 20260504022056 | 54 | 273 | 0.0 | 0.0 | 0.00 | 0.00 | 0.00 | 71 | 1015.6 |
| 20260504021556 | 54 | 273 | 0.0 | 0.0 | 0.00 | 0.00 | 0.00 | 70 | 1015.5 |
| 20260504021056 | 54 | 273 | 0.0 | 0.0 | 0.00 | 0.00 | 0.00 | 69 | 1015.5 |
| 20260504020556 | 55 | 273 | 0.0 | 0.0 | 0.00 | 0.00 | 0.00 | 68 | 1015.4 |
| 20260504020056 | 55 | 273 | 0.0 | 0.0 | 0.00 | 0.00 | 0.00 | 67 | 1015.3 |
| 20260504015556 | 55 | 273 | 0.0 | 0.0 | 0.00 | 0.00 | 0.00 | 67 | 1015.2 |
| 20260504015058 | 55 | 273 | 0.0 | 0.0 | 0.00 | 0.00 | 0.00 | 66 | 1015.1 |
| 20260504014556 | 55 | 273 | 0.0 | 0.0 | 0.00 | 0.00 | 0.00 | 65 | 1015.0 |
| 20260504014058 | 56 | 273 | 0.0 | 0.0 | 0.00 | 0.00 | 0.00 | 64 | 1014.9 |
| 20260504013555 | 56 | 273 | 0.0 | 0.0 | 0.00 | 0.00 | 0.00 | 63 | 1014.8 |
| 20260504013057 | 56 | 273 | 0.0 | 0.0 | 0.00 | 0.00 | 0.00 | 62 | 1014.8 |
| 20260504012555 | 56 | 273 | 0.0 | 0.0 | 0.00 | 0.00 | 0.00 | 60 | 1014.7 |
| 20260504012055 | 56 | 273 | 0.0 | 0.0 | 0.00 | 0.00 | 0.00 | 60 | 1014.7 |
| 20260504011555 | 57 | 273 | 0.0 | 0.0 | 0.00 | 0.00 | 0.00 | 59 | 1014.7 |
| 20260504011054 | 57 | 273 | 0.0 | 0.0 | 0.00 | 0.00 | 0.00 | 59 | 1014.8 |
| 20260504010554 | 57 | 273 | 0.0 | 0.0 | 0.00 | 0.00 | 0.00 | 57 | 1014.7 |
| 20260504010058 | 58 | 273 | 0.0 | 0.0 | 0.00 | 0.00 | 0.00 | 55 | 1014.7 |
| 20260504005554 | 58 | 273 | 0.0 | 0.0 | 0.00 | 0.00 | 0.00 | 54 | 1014.6 |
| 20260504005057 | 59 | 273 | 0.0 | 0.0 | 0.00 | 0.00 | 0.00 | 54 | 1014.7 |
| 20260504004554 | 59 | 273 | 0.0 | 0.0 | 0.00 | 0.00 | 0.00 | 54 | 1014.5 |
| 20260504004053 | 60 | 273 | 0.0 | 0.0 | 0.00 | 0.00 | 0.00 | 53 | 1014.5 |
| 20260504003557 | 60 | 273 | 0.0 | 0.0 | 0.00 | 0.00 | 0.00 | 54 | 1014.4 |
| 20260504003053 | 60 | 273 | 0.0 | 0.0 | 0.00 | 0.00 | 0.00 | 54 | 1014.3 |
| 20260504002553 | 61 | 273 | 0.0 | 0.0 | 0.00 | 0.00 | 0.00 | 51 | 1014.3 |
| 20260504002053 | 61 | 273 | 0.0 | 0.0 | 0.00 | 0.00 | 0.00 | 51 | 1014.3 |
| 20260504001610 | 62 | 273 | 0.0 | 0.0 | 0.00 | 0.00 | 0.00 | 50 | 1014.3 |
| 20260504001053 | 62 | 273 | 0.0 | 0.0 | 0.00 | 0.00 | 0.00 | 50 | 1014.3 |
| 20260504000552 | 63 | 273 | 0.0 | 0.0 | 0.00 | 0.00 | 0.00 | 50 | 1014.3 |
| 20260504000052 | 63 | 273 | 0.0 | 0.0 | 0.00 | 0.00 | 0.00 | 49 | 1014.2 |
| 20260503235552 | 64 | 286 | 0.0 | 0.0 | 0.00 | 0.00 | 0.00 | 49 | 1014.2 |
| 20260503235052 | 64 | 286 | 0.0 | 1.0 | 0.00 | 0.00 | 0.00 | 48 | 1014.1 |
| 20260503234552 | 64 | 286 | 0.0 | 3.0 | 0.00 | 0.00 | 0.00 | 49 | 1014.2 |
| 20260503234052 | 64 | 286 | 0.0 | 3.0 | 0.00 | 0.00 | 0.00 | 46 | 1014.2 |
| 20260503233552 | 65 | 287 | 0.0 | 3.0 | 0.00 | 0.00 | 0.00 | 47 | 1014.2 |
| 20260503233051 | 65 | 284 | 0.0 | 2.0 | 0.00 | 0.00 | 0.00 | 46 | 1014.2 |
| 20260503232553 | 65 | 284 | 0.0 | 2.0 | 0.00 | 0.00 | 0.00 | 45 | 1014.2 |
| 20260503232050 | 66 | 284 | 0.0 | 3.0 | 0.00 | 0.00 | 0.00 | 44 | 1014.2 |
| 20260503231550 | 66 | 284 | 0.0 | 5.0 | 0.00 | 0.00 | 0.00 | 43 | 1014.2 |
| 20260503231051 | 67 | 284 | 0.0 | 5.0 | 0.00 | 0.00 | 0.00 | 42 | 1014.3 |
| 20260503230549 | 67 | 284 | 0.0 | 0.0 | 0.00 | 0.00 | 0.00 | 43 | 1014.3 |
| 20260503230049 | 68 | 284 | 0.0 | 0.0 | 0.00 | 0.00 | 0.00 | 45 | 1014.3 |
| 20260503225549 | 68 | 284 | 0.0 | 2.0 | 0.00 | 0.00 | 0.00 | 45 | 1014.3 |
| 20260503225049 | 68 | 284 | 0.0 | 0.0 | 0.00 | 0.00 | 0.00 | 46 | 1014.4 |
| 20260503224550 | 67 | 284 | 0.0 | 2.0 | 0.00 | 0.00 | 0.00 | 45 | 1014.3 |
| 20260503224049 | 67 | 284 | 0.0 | 7.0 | 0.00 | 0.00 | 0.00 | 43 | 1014.3 |
| 20260503223549 | 67 | 284 | 1.0 | 7.0 | 0.00 | 0.00 | 0.00 | 43 | 1014.4 |
| 20260503223048 | 68 | 284 | 0.0 | 2.0 | 0.00 | 0.00 | 0.00 | 44 | 1014.2 |
| 20260503222552 | 68 | 284 | 0.0 | 1.0 | 0.00 | 0.00 | 0.00 | 44 | 1014.3 |
| 20260503222047 | 69 | 279 | 0.0 | 0.0 | 0.00 | 0.00 | 0.00 | 41 | 1014.3 |
| 20260503221547 | 70 | 286 | 0.0 | 1.0 | 0.00 | 0.00 | 0.00 | 38 | 1014.4 |
| 20260503221052 | 70 | 286 | 0.0 | 4.0 | 0.00 | 0.00 | 0.00 | 38 | 1014.4 |
| 20260503220547 | 70 | 285 | 0.0 | 4.0 | 0.00 | 0.00 | 0.00 | 35 | 1014.4 |
| 20260503220104 | 71 | 288 | 0.0 | 2.0 | 0.00 | 0.00 | 0.00 | 41 | 1014.4 |
| 20260503215547 | 71 | 288 | 0.0 | 2.0 | 0.00 | 0.00 | 0.00 | 41 | 1014.4 |
| 20260503215047 | 70 | 287 | 0.0 | 3.0 | 0.00 | 0.00 | 0.00 | 43 | 1014.5 |
| 20260503214547 | 70 | 287 | 0.0 | 3.0 | 0.00 | 0.00 | 0.00 | 39 | 1014.4 |
| 20260503214049 | 71 | 287 | 0.0 | 1.0 | 0.00 | 0.00 | 0.00 | 41 | 1014.5 |
| 20260503213547 | 71 | 287 | 0.0 | 1.0 | 0.00 | 0.00 | 0.00 | 38 | 1014.6 |
| 20260503213049 | 71 | 286 | 0.0 | 3.0 | 0.00 | 0.00 | 0.00 | 43 | 1014.6 |
| 20260503212546 | 71 | 286 | 0.0 | 3.0 | 0.00 | 0.00 | 0.00 | 36 | 1014.6 |
| 20260503212046 | 71 | 286 | 0.0 | 4.0 | 0.00 | 0.00 | 0.00 | 36 | 1014.6 |
| 20260503211559 | 71 | 306 | 1.0 | 4.0 | 0.00 | 0.00 | 0.00 | 40 | 1014.7 |
| 20260503211047 | 71 | 306 | 0.0 | 4.0 | 0.00 | 0.00 | 0.00 | 37 | 1014.7 |
| 20260503210543 | 71 | 305 | 0.0 | 4.0 | 0.00 | 0.00 | 0.00 | 38 | 1014.8 |
| 20260503210043 | 70 | 313 | 0.0 | 4.0 | 0.00 | 0.00 | 0.00 | 37 | 1014.7 |
| 20260503205542 | 70 | 309 | 1.0 | 5.0 | 0.00 | 0.00 | 0.00 | 38 | 1014.9 |
| 20260503205041 | 70 | 311 | 0.0 | 5.0 | 0.00 | 0.00 | 0.00 | 38 | 1015.0 |
| 20260503204541 | 70 | 305 | 0.0 | 3.0 | 0.00 | 0.00 | 0.00 | 41 | 1014.9 |
| 20260503204039 | 69 | 225 | 0.0 | 8.0 | 0.00 | 0.00 | 0.00 | 37 | 1015.0 |
| 20260503203539 | 69 | 22 | 0.0 | 6.0 | 0.00 | 0.00 | 0.00 | 44 | 1015.1 |
| 20260503203038 | 68 | 5 | 0.0 | 6.0 | 0.00 | 0.00 | 0.00 | 42 | 1015.0 |
| 20260503202539 | 68 | 100 | 0.0 | 6.0 | 0.00 | 0.00 | 0.00 | 42 | 1015.2 |
| 20260503202037 | 69 | 103 | 1.0 | 8.0 | 0.00 | 0.00 | 0.00 | 45 | 1015.3 |
| 20260503201537 | 69 | 209 | 0.0 | 8.0 | 0.00 | 0.00 | 0.00 | 46 | 1015.3 |
| 20260503201036 | 69 | 123 | 0.0 | 8.0 | 0.00 | 0.00 | 0.00 | 44 | 1015.4 |
| 20260503200535 | 69 | 196 | 0.0 | 4.0 | 0.00 | 0.00 | 0.00 | 45 | 1015.5 |
| 20260503200037 | 69 | 175 | 0.0 | 5.0 | 0.00 | 0.00 | 0.00 | 45 | 1015.6 |
| 20260503195533 | 69 | 182 | 0.0 | 4.0 | 0.00 | 0.00 | 0.00 | 44 | 1015.8 |
| 20260503195033 | 70 | 180 | 0.0 | 4.0 | 0.00 | 0.00 | 0.00 | 43 | 1015.8 |
| 20260503194532 | 68 | 179 | 0.0 | 5.0 | 0.00 | 0.00 | 0.00 | 44 | 1015.8 |
| 20260503194031 | 69 | 179 | 0.0 | 5.0 | 0.00 | 0.00 | 0.00 | 41 | 1016.0 |
| 20260503193532 | 68 | 173 | 0.0 | 4.0 | 0.00 | 0.00 | 0.00 | 40 | 1016.1 |
| 20260503193028 | 68 | 173 | 0.0 | 4.0 | 0.00 | 0.00 | 0.00 | 42 | 1016.1 |
| 20260503192527 | 68 | 173 | 0.0 | 4.0 | 0.00 | 0.00 | 0.00 | 41 | 1016.2 |
| 20260503192026 | 69 | 158 | 0.0 | 6.0 | 0.00 | 0.00 | 0.00 | 44 | 1016.4 |
| 20260503191527 | 68 | 152 | 1.0 | 8.0 | 0.00 | 0.00 | 0.00 | 47 | 1016.3 |
| 20260503191023 | 68 | 161 | 1.0 | 6.0 | 0.00 | 0.00 | 0.00 | 44 | 1016.4 |
| 20260503190521 | 67 | 161 | 1.0 | 5.0 | 0.00 | 0.00 | 0.00 | 44 | 1016.4 |
| 20260503190023 | 68 | 157 | 0.0 | 5.0 | 0.00 | 0.00 | 0.00 | 46 | 1016.5 |
| 20260503185519 | 68 | 158 | 0.0 | 5.0 | 0.00 | 0.00 | 0.00 | 43 | 1016.6 |
| 20260503185020 | 68 | 156 | 0.0 | 3.0 | 0.00 | 0.00 | 0.00 | 41 | 1016.6 |
| 20260503184522 | 68 | 156 | 0.0 | 3.0 | 0.00 | 0.00 | 0.00 | 44 | 1016.8 |
| 20260503184016 | 68 | 150 | 0.0 | 3.0 | 0.00 | 0.00 | 0.00 | 47 | 1016.7 |
| 20260503183520 | 66 | 167 | 0.0 | 6.0 | 0.00 | 0.00 | 0.00 | 48 | 1016.8 |
| 20260503183023 | 66 | 167 | 0.0 | 6.0 | 0.00 | 0.00 | 0.00 | 43 | 1016.8 |
| 20260503182510 | 67 | 155 | 0.0 | 5.0 | 0.00 | 0.00 | 0.00 | 43 | 1016.8 |
| 20260503182009 | 67 | 155 | 0.0 | 5.0 | 0.00 | 0.00 | 0.00 | 43 | 1016.9 |
| 20260503181523 | 66 | 134 | 0.0 | 5.0 | 0.00 | 0.00 | 0.00 | 45 | 1016.8 |
| 20260503181007 | 66 | 134 | 2.0 | 5.0 | 0.00 | 0.00 | 0.00 | 47 | 1016.9 |
| 20260503180506 | 66 | 136 | 0.0 | 5.0 | 0.00 | 0.00 | 0.00 | 46 | 1016.9 |
| 20260503180005 | 66 | 137 | 0.0 | 5.0 | 0.00 | 0.00 | 0.00 | 46 | 1017.0 |
| 20260503175503 | 66 | 130 | 0.0 | 4.0 | 0.00 | 0.00 | 0.00 | 50 | 1017.0 |
| 20260503175004 | 66 | 132 | 0.0 | 7.0 | 0.00 | 0.00 | 0.00 | 49 | 1017.0 |
| 20260503174601 | 66 | 130 | 2.0 | 7.0 | 0.00 | 0.00 | 0.00 | 45 | 1017.0 |
| 20260503174059 | 65 | 234 | 0.0 | 5.0 | 0.00 | 0.00 | 0.00 | 45 | 1017.1 |
| 20260503173557 | 66 | 231 | 0.0 | 3.0 | 0.00 | 0.00 | 0.00 | 44 | 1017.2 |
| 20260503173100 | 65 | 231 | 0.0 | 3.0 | 0.00 | 0.00 | 0.00 | 41 | 1017.2 |
| 20260503172558 | 65 | 232 | 0.0 | 4.0 | 0.00 | 0.00 | 0.00 | 45 | 1017.3 |
| 20260503172052 | 64 | 231 | 1.0 | 4.0 | 0.00 | 0.00 | 0.00 | 48 | 1017.3 |
| 20260503171551 | 65 | 243 | 0.0 | 1.0 | 0.00 | 0.00 | 0.00 | 48 | 1017.3 |
| 20260503171050 | 65 | 243 | 0.0 | 5.0 | 0.00 | 0.00 | 0.00 | 49 | 1017.4 |
| 20260503170548 | 64 | 243 | 0.0 | 5.0 | 0.00 | 0.00 | 0.00 | 46 | 1017.4 |
| 20260503150520 | 61 | 231 | 0.0 | 4.0 | 0.00 | 0.00 | 0.00 | 56 | 1018.4 |